Weather History for Fond du Lac, WI

Change the Weather History Date:

Friday, December 27, 2013

  Actual Average Record
Temperature  
Mean Temperature 17 °F -  
Max Temperature 33 °F 28 °F 63 °F (2008)
Min Temperature 1 °F 12 °F -17 °F (1950)
Degree Days  
Heating Degree Days 48    
Moisture  
Dew Point 10 °F    
Average Humidity 82    
Maximum Humidity 92    
Minimum Humidity 72    
Precipitation  
Precipitation 0.00 in - - ()
Sea Level Pressure  
Sea Level Pressure 30.16 in    
Wind  
Wind Speed 3 mph (SSW)    
Max Wind Speed 18 mph    
Max Gust Speed 29 mph    
Visibility 5 miles    
Events Fog    
Averages and records for this station are not official NWS values.
T = Trace of Precipitation, MM = Missing Value Source: NWS Daily Summary

Daily Weather History Graph

Daily Weather History Graph

Search for Another Location

Airport:

Trip Planner

Search our weather history database for the weather conditions in past years. The results will help you decide how hot, cold, wet, or windy it might be!

Date:

Astronomy

Dec. 27, 2013 Rise Set
Actual Time 7:27 AM CST 4:23 PM CST
Civil Twilight 6:54 AM CST 4:56 PM CST
Nautical Twilight 6:17 AM CST 5:32 PM CST
Astronomical Twilight 5:42 AM CST 6:07 PM CST
Moon 1:52 AM CST (12/27) 12:39 PM CST (12/27)
Length of Visible Light 10h 02m
Length of Day
8h 56m
Waning Crescent, 28% of the Moon is Illuminated
Dec 27
Waning Crescent
Jan 1
New
Jan 7
First Quarter
Jan 15
Full
Jan 23
Last Quarter

Hourly Weather History & Observations

Time (CST) Temp. Windchill Dew Point Humidity Pressure Visibility Wind Dir Wind Speed Gust Speed Precip Events Conditions
12:53 AM 16.0 °F - 12.9 °F 88% 30.24 in 2.5 mi Calm Calm - N/A   Clear
1:11 AM 14.0 °F - 10.9 °F 88% 30.19 in 1.8 mi Calm Calm - N/A   Clear
1:18 AM 12.9 °F - 10.9 °F 92% 30.19 in 1.0 mi Calm Calm - N/A   Clear
1:25 AM 9.0 °F - 7.0 °F 92% 30.19 in 2.0 mi Calm Calm - N/A   Clear
1:32 AM 9.0 °F - 6.1 °F 88% 30.19 in 4.0 mi Calm Calm - N/A   Clear
1:53 AM 9.0 °F - 5.0 °F 84% 30.25 in 3.0 mi Calm Calm - N/A   Clear
2:00 AM 9.0 °F - 5.0 °F 84% 30.20 in 2.5 mi Calm Calm - N/A   Partly Cloudy
2:08 AM 9.0 °F - 6.1 °F 88% 30.20 in 1.5 mi Calm Calm - N/A   Scattered Clouds
2:13 AM 8.1 °F - 5.0 °F 87% 30.20 in 2.0 mi Calm Calm - N/A   Partly Cloudy
2:23 AM 7.0 °F - 3.9 °F 87% 30.20 in 5.0 mi Calm Calm - N/A   Partly Cloudy
2:44 AM 5.0 °F -2.1 °F 1.0 °F 84% 30.20 in 1.0 mi South 3.5 mph - N/A   Mist
2:51 AM 3.2 °F -4.2 °F 1.4 °F 92% 30.20 in 0.2 mi South 3.5 mph - N/A Fog Light Freezing Fog
2:53 AM 3.9 °F -3.4 °F 1.9 °F 91% 30.26 in 0.2 mi South 3.5 mph - N/A Fog Light Freezing Fog
3:17 AM 3.0 °F - -0.9 °F 84% 30.20 in 1.8 mi Calm Calm - N/A   Mostly Cloudy
3:22 AM 3.0 °F - -0.9 °F 84% 30.20 in 3.0 mi Calm Calm - N/A   Mostly Cloudy
3:31 AM 3.9 °F - 1.0 °F 88% 30.20 in 1.8 mi Calm Calm - N/A   Scattered Clouds
3:33 AM 3.9 °F - 1.0 °F 88% 30.20 in 0.8 mi Calm Calm - N/A   Mist
3:53 AM 3.0 °F - -0.9 °F 84% 30.26 in 0.2 mi Calm Calm - N/A Fog Light Freezing Fog
4:24 AM 1.0 °F - -4.0 °F 79% 30.19 in 2.0 mi Calm Calm - N/A   Haze
4:30 AM 1.9 °F - -2.9 °F 80% 30.20 in 7.0 mi Calm Calm - N/A   Scattered Clouds
4:53 AM 1.0 °F - -2.9 °F 83% 30.26 in 7.0 mi Calm Calm - N/A   Clear
5:10 AM 1.0 °F -10.3 °F -4.0 °F 79% 30.20 in 8.0 mi South 5.8 mph - N/A   Partly Cloudy
5:53 AM 1.9 °F - -2.0 °F 83% 30.28 in 7.0 mi Calm Calm - N/A   Clear
6:53 AM 3.0 °F -8.0 °F -0.9 °F 84% 30.27 in 5.0 mi South 5.8 mph - N/A   Clear
7:33 AM 3.9 °F -5.3 °F 1.0 °F 88% 30.21 in 2.5 mi South 4.6 mph - N/A   Clear
7:43 AM 3.9 °F -5.3 °F -0.9 °F 80% 30.21 in 3.0 mi South 4.6 mph - N/A   Haze
7:53 AM 8.1 °F -3.2 °F 3.9 °F 83% 30.25 in 4.0 mi South 6.9 mph - N/A   Clear
8:53 AM 12.9 °F 5.2 °F 10.0 °F 88% 30.26 in 4.0 mi South 4.6 mph - N/A   Clear
9:53 AM 19.9 °F 12.1 °F 17.1 °F 89% 30.25 in 5.0 mi SSW 5.8 mph - N/A   Clear
10:53 AM 23.0 °F 15.8 °F 19.0 °F 85% 30.21 in 5.0 mi South 5.8 mph - N/A   Clear
11:53 AM 28.0 °F 17.5 °F 21.9 °F 78% 30.17 in 9.0 mi South 12.7 mph - N/A   Clear
12:53 PM 30.9 °F 19.8 °F 24.1 °F 76% 30.12 in 10.0 mi South 16.1 mph - N/A   Clear
1:53 PM 32.0 °F 22.5 °F 24.1 °F 73% 30.09 in 10.0 mi SSW 12.7 mph - N/A   Clear
2:53 PM 30.9 °F 20.2 °F 24.1 °F 76% 30.06 in 10.0 mi SSW 15.0 mph - N/A   Scattered Clouds
3:53 PM 30.9 °F 19.1 °F 23.0 °F 72% 30.03 in 10.0 mi South 18.4 mph 25.3 mph N/A   Clear
4:53 PM 32.0 °F 20.5 °F 25.0 °F 75% 29.99 in 10.0 mi SSW 18.4 mph 28.8 mph N/A   Overcast
5:53 PM 32.0 °F 20.5 °F 24.1 °F 73% 30.00 in 10.0 mi SW 18.4 mph 27.6 mph N/A   Mostly Cloudy
6:53 PM 30.9 °F 20.2 °F 24.1 °F 76% 29.99 in 10.0 mi SSW 15.0 mph - N/A   Clear
7:53 PM 32.0 °F 22.5 °F 24.1 °F 73% 29.99 in 10.0 mi SSW 12.7 mph 23.0 mph N/A   Clear
8:53 PM 32.0 °F 22.5 °F 24.1 °F 73% 29.99 in 10.0 mi SW 12.7 mph - N/A   Clear
9:53 PM 33.1 °F 27.7 °F 25.0 °F 72% 30.00 in 10.0 mi SW 5.8 mph - N/A   Clear
10:53 PM 33.1 °F 26.9 °F 25.0 °F 72% 30.01 in 10.0 mi SW 6.9 mph - N/A   Clear
11:53 PM 30.9 °F 23.5 °F 25.0 °F 79% 30.02 in 10.0 mi SW 8.1 mph - N/A   Clear